Location: Grust
(42.8833°N, 0.0333°W)
Time: 13:59:00
(UTC+00:00)

USA 305 - Pass Details

Date: 25 October 2020
Orbit: 569 x 577 km, 54.0° (Epoch: 22 November)

Event Time Altitude Azimuth Distance (km) Brightness Sun altitude
Rises 19:20:15 0° 309° (NW) 2,785 7.3 -26.0°
Reaches altitude 10° 19:22:37 10° 318° (NW) 1,883 6.1 -26.4°
Enters shadow 19:25:07 29° 342° (NNW) 1,072 4.4 -26.9°
